HST 1 20580U 90037B 25071.16781464 .00011821 00000-0 47149-3 0 9997 2 20580 28.4692 341.8603 0002197 83.6816 276.4028 15.23578003718126 ISS (ZARYA) 1 25544U 98067A 25071.34199439 .00013876 00000-0 25129-3 0 9994 2 25544 51.6352 66.7028 0006423 12.5650 347.5498 15.49917383500147 CXO 1 25867U 99040B 25071.59384992 .00000942 00000-0 00000+0 0 9998 2 25867 47.3636 134.5734 8566439 307.7117 0.3660 0.37809100 26734